Wetterdaten: Donnerstag, 23.12.2010
Datum Zeit Temp. A. Feuchte A. Luftdruck Regen Wind Richtung Richtung Sonnenschein UV Solar Windben
23.12.2010 00:00 1,3 C 92 % 1001,4 hPa 0,0 mm 0,0 km/h (0 Bft) N 0 0 min 0 UV-I 0 W/m 0,0 km/h (0 Bft)
23.12.2010 00:10 1,3 C 92 % 1001,3 hPa 0,0 mm 0,0 km/h (0 Bft) N 0 0 min 0 UV-I 0 W/m 0,0 km/h (0 Bft)
23.12.2010 00:20 1,3 C 92 % 1001,2 hPa 0,0 mm 0,0 km/h (0 Bft) O-SO 112 0 min 0 UV-I 0 W/m 4,8 km/h (1 Bft)
23.12.2010 00:30 1,2 C 92 % 1001,2 hPa 0,0 mm 0,0 km/h (0 Bft) O-SO 112 0 min 0 UV-I 0 W/m 3,2 km/h (1 Bft)
23.12.2010 00:40 1,2 C 92 % 1001,3 hPa 0,0 mm 0,0 km/h (0 Bft) O-SO 112 0 min 0 UV-I 0 W/m 3,2 km/h (1 Bft)
23.12.2010 00:50 1,2 C 92 % 1001,3 hPa 0,0 mm 0,0 km/h (0 Bft) N 0 0 min 0 UV-I 0 W/m 0,0 km/h (0 Bft)
23.12.2010 01:00 1,2 C 92 % 1001,5 hPa 0,0 mm 0,0 km/h (0 Bft) N 0 0 min 0 UV-I 0 W/m 0,0 km/h (0 Bft)
23.12.2010 01:10 1,2 C 92 % 1001,6 hPa 0,3 mm 0,0 km/h (0 Bft) N 0 0 min 0 UV-I 0 W/m 0,0 km/h (0 Bft)
23.12.2010 01:20 1,2 C 92 % 1001,7 hPa 0,0 mm 0,0 km/h (0 Bft) N 0 0 min 0 UV-I 0 W/m 0,0 km/h (0 Bft)
23.12.2010 01:30 1,2 C 92 % 1001,7 hPa 0,0 mm 0,0 km/h (0 Bft) N 0 0 min 0 UV-I 0 W/m 0,0 km/h (0 Bft)
23.12.2010 01:40 1,1 C 92 % 1001,7 hPa 0,3 mm 0,0 km/h (0 Bft) N 0 0 min 0 UV-I 0 W/m 0,0 km/h (0 Bft)
23.12.2010 01:50 1,1 C 92 % 1001,2 hPa 0,0 mm 0,0 km/h (0 Bft) O-SO 112 0 min 0 UV-I 0 W/m 1,6 km/h (1 Bft)
23.12.2010 02:00 1,1 C 92 % 1001,0 hPa 0,3 mm 0,0 km/h (0 Bft) O-SO 112 0 min 0 UV-I 0 W/m 3,2 km/h (1 Bft)
23.12.2010 02:10 1,1 C 92 % 1000,8 hPa 0,3 mm 0,0 km/h (0 Bft) O-SO 112 0 min 0 UV-I 0 W/m 3,2 km/h (1 Bft)
23.12.2010 02:20 1,1 C 92 % 1000,6 hPa 0,0 mm 1,6 km/h (1 Bft) O-SO 112 0 min 0 UV-I 0 W/m 4,8 km/h (1 Bft)
23.12.2010 02:30 1,0 C 92 % 1000,4 hPa 0,3 mm 3,2 km/h (1 Bft) O-SO 112 0 min 0 UV-I 0 W/m 9,7 km/h (2 Bft)
23.12.2010 02:40 1,0 C 92 % 1000,4 hPa 0,0 mm 1,6 km/h (1 Bft) NO 45 0 min 0 UV-I 0 W/m 6,4 km/h (2 Bft)
23.12.2010 02:50 1,0 C 92 % 1000,4 hPa 0,0 mm 0,0 km/h (0 Bft) NO 45 0 min 0 UV-I 0 W/m 3,2 km/h (1 Bft)
23.12.2010 03:00 0,9 C 92 % 1000,4 hPa 0,3 mm 0,0 km/h (0 Bft) N 0 0 min 0 UV-I 0 W/m 0,0 km/h (0 Bft)
23.12.2010 03:10 0,9 C 92 % 1000,2 hPa 0,0 mm 0,0 km/h (0 Bft) NO 45 0 min 0 UV-I 0 W/m 1,6 km/h (1 Bft)
23.12.2010 03:20 0,8 C 92 % 999,9 hPa 0,0 mm 0,0 km/h (0 Bft) NO 45 0 min 0 UV-I 0 W/m 3,2 km/h (1 Bft)
23.12.2010 03:30 0,8 C 92 % 1000,3 hPa 0,3 mm 0,0 km/h (0 Bft) N 0 0 min 0 UV-I 0 W/m 0,0 km/h (0 Bft)
23.12.2010 03:40 0,8 C 92 % 999,9 hPa 0,0 mm 0,0 km/h (0 Bft) N 0 0 min 0 UV-I 0 W/m 0,0 km/h (0 Bft)
23.12.2010 03:50 0,8 C 92 % 999,7 hPa 0,0 mm 0,0 km/h (0 Bft) NO 45 0 min 0 UV-I 0 W/m 1,6 km/h (1 Bft)
23.12.2010 04:00 0,8 C 92 % 999,8 hPa 0,3 mm 0,0 km/h (0 Bft) NO 45 0 min 0 UV-I 0 W/m 3,2 km/h (1 Bft)
23.12.2010 04:10 0,8 C 92 % 1000,0 hPa 0,0 mm 0,0 km/h (0 Bft) NO 45 0 min 0 UV-I 0 W/m 3,2 km/h (1 Bft)
23.12.2010 04:20 0,7 C 92 % 999,8 hPa 0,3 mm 0,0 km/h (0 Bft) NO 45 0 min 0 UV-I 0 W/m 4,8 km/h (1 Bft)
23.12.2010 04:30 0,7 C 92 % 999,8 hPa 0,0 mm 0,0 km/h (0 Bft) NO 45 0 min 0 UV-I 0 W/m 1,6 km/h (1 Bft)
23.12.2010 04:40 0,7 C 92 % 999,8 hPa 0,0 mm 0,0 km/h (0 Bft) NO 45 0 min 0 UV-I 0 W/m 3,2 km/h (1 Bft)
23.12.2010 04:50 0,6 C 92 % 999,7 hPa 0,3 mm 0,0 km/h (0 Bft) NO 45 0 min 0 UV-I 0 W/m 3,2 km/h (1 Bft)
23.12.2010 05:00 0,6 C 92 % 999,7 hPa 0,0 mm 1,6 km/h (1 Bft) NO 45 0 min 0 UV-I 0 W/m 4,8 km/h (1 Bft)
23.12.2010 05:10 0,6 C 92 % 999,6 hPa 0,0 mm 1,6 km/h (1 Bft) NO 45 0 min 0 UV-I 0 W/m 6,4 km/h (2 Bft)
23.12.2010 05:20 0,6 C 92 % 999,6 hPa 0,3 mm 1,6 km/h (1 Bft) NO 45 0 min 0 UV-I 0 W/m 6,4 km/h (2 Bft)
23.12.2010 05:30 0,5 C 92 % 999,6 hPa 0,0 mm 1,6 km/h (1 Bft) NO 45 0 min 0 UV-I 0 W/m 6,4 km/h (2 Bft)
23.12.2010 05:40 0,4 C 92 % 999,4 hPa 0,0 mm 1,6 km/h (1 Bft) NO 45 0 min 0 UV-I 0 W/m 6,4 km/h (2 Bft)
23.12.2010 05:50 0,4 C 92 % 999,5 hPa 0,0 mm 1,6 km/h (1 Bft) NO 45 0 min 0 UV-I 0 W/m 4,8 km/h (1 Bft)
23.12.2010 06:00 0,4 C 92 % 999,4 hPa 0,0 mm 1,6 km/h (1 Bft) NO 45 0 min 0 UV-I 0 W/m 4,8 km/h (1 Bft)
23.12.2010 06:10 0,3 C 92 % 999,5 hPa 0,0 mm 1,6 km/h (1 Bft) NO 45 0 min 0 UV-I 0 W/m 6,4 km/h (2 Bft)
23.12.2010 06:20 0,3 C 92 % 999,5 hPa 0,3 mm 1,6 km/h (1 Bft) NO 45 0 min 0 UV-I 0 W/m 6,4 km/h (2 Bft)
23.12.2010 06:30 0,2 C 92 % 999,5 hPa 0,0 mm 1,6 km/h (1 Bft) NO 45 0 min 0 UV-I 0 W/m 6,4 km/h (2 Bft)
23.12.2010 06:40 0,2 C 92 % 999,5 hPa 0,0 mm 1,6 km/h (1 Bft) NO 45 0 min 0 UV-I 0 W/m 8,0 km/h (2 Bft)
23.12.2010 06:50 0,1 C 92 % 999,5 hPa 0,0 mm 3,2 km/h (1 Bft) NO 45 0 min 0 UV-I 0 W/m 8,0 km/h (2 Bft)
23.12.2010 07:00 0,1 C 92 % 999,7 hPa 0,0 mm 3,2 km/h (1 Bft) N-NO 22 0 min 0 UV-I 0 W/m 9,7 km/h (2 Bft)
23.12.2010 07:10 0,0 C 92 % 999,8 hPa 0,0 mm 1,6 km/h (1 Bft) N-NO 22 0 min 0 UV-I 0 W/m 6,4 km/h (2 Bft)
23.12.2010 07:20 -0,1 C 92 % 999,8 hPa 0,0 mm 1,6 km/h (1 Bft) N-NO 22 0 min 0 UV-I 0 W/m 6,4 km/h (2 Bft)
23.12.2010 07:30 -0,2 C 92 % 999,9 hPa 0,0 mm 1,6 km/h (1 Bft) N-NO 22 0 min 0 UV-I 0 W/m 6,4 km/h (2 Bft)
23.12.2010 07:40 -0,3 C 92 % 999,8 hPa 0,0 mm 3,2 km/h (1 Bft) N-NO 22 0 min 0 UV-I 0 W/m 9,7 km/h (2 Bft)
23.12.2010 07:50 -0,4 C 92 % 1000,0 hPa 0,0 mm 3,2 km/h (1 Bft) N-NO 22 0 min 0 UV-I 0 W/m 9,7 km/h (2 Bft)
23.12.2010 08:00 -0,6 C 92 % 1000,0 hPa 0,0 mm 3,4 km/h (1 Bft) N-NO 26 0 min 0 UV-I 0 W/m 4,8 km/h (1 Bft)
23.12.2010 08:10 -0,6 C 92 % 1000,1 hPa 0,0 mm 1,6 km/h (1 Bft) N-NO 22 0 min 0 UV-I 0 W/m 8,0 km/h (2 Bft)
23.12.2010 08:20 -0,7 C 92 % 999,9 hPa 0,0 mm 3,2 km/h (1 Bft) N-NO 22 0 min 0 UV-I 0 W/m 6,4 km/h (2 Bft)
23.12.2010 08:30 -0,7 C 92 % 999,7 hPa 0,0 mm 3,2 km/h (1 Bft) N-NO 22 0 min 0 UV-I 0 W/m 8,0 km/h (2 Bft)
23.12.2010 08:40 -0,8 C 92 % 1000,0 hPa 0,0 mm 1,6 km/h (1 Bft) N-NO 22 0 min 0 UV-I 0 W/m 8,0 km/h (2 Bft)
23.12.2010 08:50 -0,8 C 92 % 1000,1 hPa 0,0 mm 1,6 km/h (1 Bft) N-NO 22 0 min 0 UV-I 0 W/m 9,7 km/h (2 Bft)
23.12.2010 09:00 -0,9 C 92 % 1000,0 hPa 0,0 mm 1,6 km/h (1 Bft) N-NO 22 0 min 0 UV-I 0 W/m 6,4 km/h (2 Bft)
23.12.2010 09:10 -0,9 C 92 % 1000,3 hPa 0,0 mm 1,6 km/h (1 Bft) N-NO 22 0 min 0 UV-I 5 W/m 6,4 km/h (2 Bft)
23.12.2010 09:20 -1,0 C 92 % 1000,2 hPa 0,0 mm 3,2 km/h (1 Bft) N-NO 22 0 min 0 UV-I 7 W/m 9,7 km/h (2 Bft)
23.12.2010 09:30 -1,1 C 92 % 1000,3 hPa 0,0 mm 3,2 km/h (1 Bft) N-NO 22 0 min 0 UV-I 9 W/m 9,7 km/h (2 Bft)
23.12.2010 09:40 -1,2 C 92 % 1000,2 hPa 0,0 mm 3,2 km/h (1 Bft) N-NO 22 0 min 0 UV-I 11 W/m 8,0 km/h (2 Bft)
23.12.2010 09:50 -1,2 C 92 % 1000,2 hPa 0,0 mm 3,2 km/h (1 Bft) N-NO 22 0 min 0 UV-I 11 W/m 8,0 km/h (2 Bft)
23.12.2010 10:00 -1,3 C 92 % 1000,3 hPa 0,0 mm 3,2 km/h (1 Bft) N-NO 22 0 min 0 UV-I 16 W/m 8,0 km/h (2 Bft)
23.12.2010 10:10 -1,3 C 92 % 1000,6 hPa 0,0 mm 3,2 km/h (1 Bft) N-NO 22 0 min 0 UV-I 19 W/m 8,0 km/h (2 Bft)
23.12.2010 10:20 -1,3 C 92 % 1000,7 hPa 0,0 mm 1,6 km/h (1 Bft) N-NO 22 0 min 0 UV-I 23 W/m 8,0 km/h (2 Bft)
23.12.2010 10:30 -1,3 C 92 % 1000,8 hPa 0,0 mm 3,2 km/h (1 Bft) N-NO 22 0 min 0 UV-I 21 W/m 11,3 km/h (2 Bft)
23.12.2010 10:40 -1,4 C 92 % 1000,9 hPa 0,0 mm 3,2 km/h (1 Bft) N-NO 22 0 min 0 UV-I 19 W/m 8,0 km/h (2 Bft)
23.12.2010 10:50 -1,4 C 92 % 1001,1 hPa 0,0 mm 1,6 km/h (1 Bft) N-NO 22 0 min 0 UV-I 19 W/m 8,0 km/h (2 Bft)
23.12.2010 11:00 -1,5 C 92 % 1001,2 hPa 0,0 mm 1,6 km/h (1 Bft) N-NO 22 0 min 0 UV-I 23 W/m 8,0 km/h (2 Bft)
23.12.2010 11:10 -1,5 C 92 % 1001,1 hPa 0,0 mm 1,6 km/h (1 Bft) N-NO 22 0 min 0 UV-I 28 W/m 6,4 km/h (2 Bft)
23.12.2010 11:20 -1,5 C 92 % 1001,2 hPa 0,0 mm 1,6 km/h (1 Bft) N-NO 22 0 min 0 UV-I 32 W/m 6,4 km/h (2 Bft)
23.12.2010 11:30 -1,5 C 92 % 1001,1 hPa 0,0 mm 1,6 km/h (1 Bft) N-NO 22 0 min 0 UV-I 39 W/m 9,7 km/h (2 Bft)
23.12.2010 11:40 -1,6 C 92 % 1001,2 hPa 0,0 mm 1,6 km/h (1 Bft) N-NO 22 0 min 0 UV-I 40 W/m 8,0 km/h (2 Bft)
23.12.2010 11:50 -1,6 C 92 % 1001,4 hPa 0,0 mm 1,6 km/h (1 Bft) N-NO 22 0 min 0 UV-I 37 W/m 6,4 km/h (2 Bft)
23.12.2010 12:00 -1,6 C 92 % 1001,3 hPa 0,0 mm 1,6 km/h (1 Bft) N-NO 22 0 min 0 UV-I 39 W/m 4,8 km/h (1 Bft)
23.12.2010 12:10 -1,5 C 92 % 1001,6 hPa 0,0 mm 0,0 km/h (0 Bft) N-NO 22 0 min 0 UV-I 37 W/m 3,2 km/h (1 Bft)
23.12.2010 12:20 -1,5 C 92 % 1001,5 hPa 0,0 mm 1,6 km/h (1 Bft) N-NO 22 0 min 0 UV-I 32 W/m 6,4 km/h (2 Bft)
23.12.2010 12:30 -1,5 C 92 % 1001,2 hPa 0,0 mm 1,6 km/h (1 Bft) N-NO 22 0 min 0 UV-I 30 W/m 6,4 km/h (2 Bft)
23.12.2010 12:40 -1,5 C 92 % 1001,3 hPa 0,0 mm 1,6 km/h (1 Bft) N-NO 22 0 min 0 UV-I 26 W/m 8,0 km/h (2 Bft)
23.12.2010 12:50 -1,5 C 92 % 1001,4 hPa 0,0 mm 0,0 km/h (0 Bft) N-NO 22 0 min 0 UV-I 26 W/m 3,2 km/h (1 Bft)
23.12.2010 13:00 -1,5 C 92 % 1001,1 hPa 0,0 mm 1,6 km/h (1 Bft) N-NO 22 0 min 0 UV-I 33 W/m 6,4 km/h (2 Bft)
23.12.2010 13:10 -1,4 C 92 % 1000,8 hPa 0,0 mm 3,2 km/h (1 Bft) N-NO 22 0 min 0 UV-I 35 W/m 11,3 km/h (2 Bft)
23.12.2010 13:20 -1,4 C 92 % 1001,0 hPa 0,3 mm 1,6 km/h (1 Bft) N-NO 22 0 min 0 UV-I 35 W/m 9,7 km/h (2 Bft)
23.12.2010 13:30 -1,3 C 92 % 1000,9 hPa 0,0 mm 1,6 km/h (1 Bft) N-NO 22 0 min 0 UV-I 33 W/m 6,4 km/h (2 Bft)
23.12.2010 13:40 -1,3 C 92 % 1001,0 hPa 0,3 mm 1,6 km/h (1 Bft) N-NO 22 0 min 0 UV-I 35 W/m 8,0 km/h (2 Bft)
23.12.2010 13:50 -1,2 C 92 % 1000,9 hPa 0,0 mm 3,2 km/h (1 Bft) N-NO 22 0 min 0 UV-I 30 W/m 8,0 km/h (2 Bft)
23.12.2010 14:00 -1,1 C 92 % 1000,6 hPa 0,0 mm 3,2 km/h (1 Bft) N-NO 22 0 min 0 UV-I 25 W/m 9,7 km/h (2 Bft)
23.12.2010 14:10 -1,1 C 92 % 1000,5 hPa 0,3 mm 4,8 km/h (1 Bft) N-NO 22 0 min 0 UV-I 26 W/m 14,5 km/h (3 Bft)
23.12.2010 14:20 -1,1 C 92 % 1000,4 hPa 0,0 mm 3,2 km/h (1 Bft) N-NO 22 0 min 0 UV-I 21 W/m 9,7 km/h (2 Bft)
23.12.2010 14:30 -1,1 C 92 % 1000,4 hPa 0,3 mm 3,2 km/h (1 Bft) N-NO 22 0 min 0 UV-I 21 W/m 8,0 km/h (2 Bft)
23.12.2010 14:40 -1,1 C 92 % 1000,6 hPa 0,0 mm 1,6 km/h (1 Bft) N-NO 22 0 min 0 UV-I 19 W/m 8,0 km/h (2 Bft)
23.12.2010 14:50 -1,0 C 92 % 1000,6 hPa 0,0 mm 0,0 km/h (0 Bft) N-NO 22 0 min 0 UV-I 19 W/m 4,8 km/h (1 Bft)
23.12.2010 15:00 -1,0 C 92 % 1000,7 hPa 0,0 mm 0,0 km/h (0 Bft) N-NO 22 0 min 0 UV-I 11 W/m 4,8 km/h (1 Bft)
23.12.2010 15:10 -0,9 C 92 % 1000,7 hPa 0,0 mm 0,0 km/h (0 Bft) N-NO 22 0 min 0 UV-I 9 W/m 3,2 km/h (1 Bft)
23.12.2010 15:20 -0,9 C 92 % 1000,8 hPa 0,0 mm 0,0 km/h (0 Bft) N-NO 22 0 min 0 UV-I 7 W/m 4,8 km/h (1 Bft)
23.12.2010 15:30 -0,9 C 92 % 1000,6 hPa 0,0 mm 1,6 km/h (1 Bft) N-NO 22 0 min 0 UV-I 9 W/m 6,4 km/h (2 Bft)
23.12.2010 15:40 -0,9 C 92 % 1000,6 hPa 0,3 mm 1,6 km/h (1 Bft) N-NO 22 0 min 0 UV-I 9 W/m 6,4 km/h (2 Bft)
23.12.2010 15:50 -0,9 C 92 % 1000,8 hPa 0,0 mm 1,6 km/h (1 Bft) N-NO 22 0 min 0 UV-I 5 W/m 4,8 km/h (1 Bft)
23.12.2010 16:00 -0,9 C 92 % 1000,8 hPa 0,0 mm 1,2 km/h (1 Bft) N-NO 22 0 min 0 UV-I 0 W/m 4,8 km/h (1 Bft)
23.12.2010 16:10 -0,8 C 92 % 1000,8 hPa 0,0 mm 1,6 km/h (1 Bft) N-NO 22 0 min 0 UV-I 0 W/m 6,4 km/h (2 Bft)
23.12.2010 16:20 -0,8 C 92 % 1000,9 hPa 0,0 mm 1,6 km/h (1 Bft) N-NO 22 0 min 0 UV-I 0 W/m 6,4 km/h (2 Bft)
23.12.2010 16:30 -0,8 C 92 % 1000,9 hPa 0,3 mm 1,6 km/h (1 Bft) N-NO 22 0 min 0 UV-I 0 W/m 8,0 km/h (2 Bft)
23.12.2010 16:40 -0,8 C 92 % 1001,0 hPa 0,0 mm 1,6 km/h (1 Bft) N-NO 22 0 min 0 UV-I 0 W/m 6,4 km/h (2 Bft)
23.12.2010 16:50 -0,8 C 92 % 1000,9 hPa 0,3 mm 1,6 km/h (1 Bft) N-NO 22 0 min 0 UV-I 0 W/m 6,4 km/h (2 Bft)
23.12.2010 17:00 -0,7 C 92 % 1000,9 hPa 0,0 mm 1,6 km/h (1 Bft) N-NO 22 0 min 0 UV-I 0 W/m 4,8 km/h (1 Bft)
23.12.2010 17:10 -0,7 C 92 % 1000,9 hPa 0,3 mm 1,6 km/h (1 Bft) N-NO 22 0 min 0 UV-I 0 W/m 4,8 km/h (1 Bft)
23.12.2010 17:20 -0,7 C 92 % 1001,2 hPa 0,0 mm 1,6 km/h (1 Bft) N-NO 22 0 min 0 UV-I 0 W/m 6,4 km/h (2 Bft)
23.12.2010 17:30 -0,7 C 92 % 1001,3 hPa 0,3 mm 1,6 km/h (1 Bft) N-NO 22 0 min 0 UV-I 0 W/m 8,0 km/h (2 Bft)
23.12.2010 17:40 -0,6 C 93 % 1001,3 hPa 0,0 mm 1,6 km/h (1 Bft) N-NO 22 0 min 0 UV-I 0 W/m 6,4 km/h (2 Bft)
23.12.2010 17:50 -0,6 C 92 % 1001,4 hPa 0,3 mm 1,6 km/h (1 Bft) N-NO 22 0 min 0 UV-I 0 W/m 6,4 km/h (2 Bft)
23.12.2010 18:00 -0,6 C 92 % 1001,4 hPa 0,0 mm 1,6 km/h (1 Bft) N-NO 22 0 min 0 UV-I 0 W/m 6,4 km/h (2 Bft)
23.12.2010 18:10 -0,5 C 92 % 1001,6 hPa 0,0 mm 0,0 km/h (0 Bft) N-NO 22 0 min 0 UV-I 0 W/m 3,2 km/h (1 Bft)
23.12.2010 18:20 -0,5 C 92 % 1001,6 hPa 0,3 mm 0,0 km/h (0 Bft) N-NO 22 0 min 0 UV-I 0 W/m 3,2 km/h (1 Bft)
23.12.2010 18:30 -0,5 C 92 % 1001,4 hPa 0,0 mm 0,0 km/h (0 Bft) N-NO 22 0 min 0 UV-I 0 W/m 4,8 km/h (1 Bft)
23.12.2010 18:40 -0,5 C 92 % 1001,4 hPa 0,0 mm 1,6 km/h (1 Bft) N-NO 22 0 min 0 UV-I 0 W/m 8,0 km/h (2 Bft)
23.12.2010 18:50 -0,5 C 92 % 1001,5 hPa 0,0 mm 1,6 km/h (1 Bft) N-NO 22 0 min 0 UV-I 0 W/m 8,0 km/h (2 Bft)
23.12.2010 19:00 -0,5 C 92 % 1001,5 hPa 0,3 mm 1,6 km/h (1 Bft) N-NO 22 0 min 0 UV-I 0 W/m 6,4 km/h (2 Bft)
23.12.2010 19:10 -0,5 C 92 % 1001,6 hPa 0,0 mm 3,2 km/h (1 Bft) N-NO 22 0 min 0 UV-I 0 W/m 6,4 km/h (2 Bft)
23.12.2010 19:20 -0,5 C 92 % 1001,8 hPa 0,0 mm 1,6 km/h (1 Bft) N-NO 22 0 min 0 UV-I 0 W/m 9,7 km/h (2 Bft)
23.12.2010 19:30 -0,5 C 92 % 1001,8 hPa 0,0 mm 0,0 km/h (0 Bft) N-NO 22 0 min 0 UV-I 0 W/m 3,2 km/h (1 Bft)
23.12.2010 19:40 -0,4 C 92 % 1002,1 hPa 0,0 mm 0,0 km/h (0 Bft) N-NO 22 0 min 0 UV-I 0 W/m 3,2 km/h (1 Bft)
23.12.2010 19:50 -0,4 C 92 % 1001,9 hPa 0,0 mm 1,6 km/h (1 Bft) N-NO 22 0 min 0 UV-I 0 W/m 6,4 km/h (2 Bft)
23.12.2010 20:00 -0,4 C 92 % 1001,9 hPa 0,0 mm 3,2 km/h (1 Bft) N-NO 22 0 min 0 UV-I 0 W/m 6,4 km/h (2 Bft)
23.12.2010 20:10 -0,4 C 92 % 1002,0 hPa 0,3 mm 1,6 km/h (1 Bft) N-NO 22 0 min 0 UV-I 0 W/m 9,7 km/h (2 Bft)
23.12.2010 20:20 -0,5 C 92 % 1001,7 hPa 0,0 mm 4,8 km/h (1 Bft) N 360 0 min 0 UV-I 0 W/m 14,5 km/h (3 Bft)
23.12.2010 20:30 -0,5 C 92 % 1001,8 hPa 0,0 mm 3,2 km/h (1 Bft) N-NO 22 0 min 0 UV-I 0 W/m 11,3 km/h (2 Bft)
23.12.2010 20:40 -0,5 C 92 % 1002,0 hPa 0,0 mm 3,2 km/h (1 Bft) N 360 0 min 0 UV-I 0 W/m 11,3 km/h (2 Bft)
23.12.2010 20:50 -0,5 C 92 % 1001,8 hPa 0,3 mm 3,2 km/h (1 Bft) N 360 0 min 0 UV-I 0 W/m 12,9 km/h (3 Bft)
23.12.2010 21:00 -0,5 C 92 % 1001,7 hPa 0,0 mm 3,2 km/h (1 Bft) N-NO 22 0 min 0 UV-I 0 W/m 9,7 km/h (2 Bft)
23.12.2010 21:10 -0,5 C 92 % 1001,7 hPa 0,0 mm 1,6 km/h (1 Bft) N-NO 22 0 min 0 UV-I 0 W/m 4,8 km/h (1 Bft)
23.12.2010 21:20 -0,5 C 92 % 1001,8 hPa 0,0 mm 3,2 km/h (1 Bft) N-NO 22 0 min 0 UV-I 0 W/m 8,0 km/h (2 Bft)
23.12.2010 21:30 -0,5 C 92 % 1001,8 hPa 0,0 mm 3,2 km/h (1 Bft) N-NO 22 0 min 0 UV-I 0 W/m 8,0 km/h (2 Bft)
23.12.2010 21:40 -0,5 C 92 % 1001,8 hPa 0,0 mm 1,6 km/h (1 Bft) N-NO 22 0 min 0 UV-I 0 W/m 8,0 km/h (2 Bft)
23.12.2010 21:50 -0,4 C 92 % 1001,8 hPa 0,0 mm 1,6 km/h (1 Bft) N-NO 22 0 min 0 UV-I 0 W/m 6,4 km/h (2 Bft)
23.12.2010 22:00 -0,4 C 92 % 1001,8 hPa 0,0 mm 3,2 km/h (1 Bft) N-NO 22 0 min 0 UV-I 0 W/m 9,7 km/h (2 Bft)
23.12.2010 22:10 -0,4 C 93 % 1001,7 hPa 0,0 mm 1,6 km/h (1 Bft) N-NO 22 0 min 0 UV-I 0 W/m 6,4 km/h (2 Bft)
23.12.2010 22:20 -0,4 C 93 % 1001,7 hPa 0,0 mm 1,6 km/h (1 Bft) N-NO 22 0 min 0 UV-I 0 W/m 8,0 km/h (2 Bft)
23.12.2010 22:30 -0,3 C 93 % 1001,7 hPa 0,0 mm 1,9 km/h (1 Bft) N 9 0 min 0 UV-I 0 W/m 9,7 km/h (2 Bft)
23.12.2010 22:40 -0,3 C 93 % 1001,7 hPa 0,0 mm 1,8 km/h (1 Bft) O-NO 76 0 min 0 UV-I 0 W/m 14,5 km/h (3 Bft)
23.12.2010 22:50 -0,3 C 93 % 1001,7 hPa 0,0 mm 2,0 km/h (1 Bft) N 11 0 min 0 UV-I 0 W/m 9,7 km/h (2 Bft)
23.12.2010 23:00 -0,2 C 93 % 1001,8 hPa 0,0 mm 2,5 km/h (1 Bft) NO 43 0 min 0 UV-I 0 W/m 8,0 km/h (2 Bft)
23.12.2010 23:10 -0,2 C 93 % 1001,8 hPa 0,0 mm 2,0 km/h (1 Bft) N-NO 14 0 min 0 UV-I 0 W/m 9,7 km/h (2 Bft)
23.12.2010 23:20 -0,2 C 92 % 1002,0 hPa 0,0 mm 0,8 km/h (0 Bft) N-NO 14 0 min 0 UV-I 0 W/m 4,8 km/h (1 Bft)
23.12.2010 23:30 -0,2 C 92 % 1001,8 hPa 0,0 mm 1,5 km/h (1 Bft) N-NO 13 0 min 0 UV-I 0 W/m 9,7 km/h (2 Bft)
23.12.2010 23:40 -0,2 C 92 % 1001,8 hPa 0,0 mm 2,5 km/h (1 Bft) N 355 0 min 0 UV-I 0 W/m 6,4 km/h (2 Bft)
23.12.2010 23:50 -0,2 C 92 % 1001,8 hPa 0,0 mm 2,9 km/h (1 Bft) N-NO 22 0 min 0 UV-I 0 W/m 9,7 km/h (2 Bft)
_ Min-Zeit 11:30 00:00 05:40 - 00:00 - - - - - 00:00
Minimum _ -1,6 C 92 % 999,4 hPa - 0,0 km/h (0 Bft) - - - - - 0,0 km/h (0 Bft)
_ Max-Zeit 00:00 17:40 19:40 01:10 14:10 - - 00:00 00:00 11:40 14:10
Maximum _ 1,3 C 93 % 1002,1 hPa 0,3 mm 4,8 km/h
N-NO (1 Bft)
- - 0 min 0 UV-I 40 W/m 14,5 km/h
N (3 Bft)
Durchschnitt _ -0,3 C 92 % 1000,8 hPa #6,6 mm 1,6 km/h (1 Bft) N-NO - #0 min. 0 UV-I 23 W/m 6,3 km/h (2 Bft)